Adak, AK

4:06 PM HDT on March 26, 2017 (GMT -0900)
Adak

Weather History for PADK - December, 2012

Change the Weather History Date:

Saturday, December 29, 2012

  Actual Average Record
Temperature  
Mean Temperature 32 °F -  
Max Temperature 34 °F 37 °F 48 °F (2016)
Min Temperature 30 °F 27 °F 12 °F (2011)
Degree Days  
Heating Degree Days 33    
Moisture  
Dew Point 27 °F    
Average Humidity 79    
Maximum Humidity 93    
Minimum Humidity 60    
Precipitation  
Precipitation 0.02 in - - ()
Sea Level Pressure  
Sea Level Pressure 28.95 in    
Wind  
Wind Speed 12 mph (NW)    
Max Wind Speed 30 mph    
Max Gust Speed 40 mph    
Visibility 8 miles    
Events      
Averages and records for this station are not official NWS values.
T = Trace of Precipitation, MM = Missing Value Source: NWS Daily Summary

Daily Weather History Graph

Daily Weather History Graph

Search for Another Location

Airport or City:

Trip Planner

Search our weather history database for the weather conditions in past years. The results will help you decide how hot, cold, wet, or windy it might be!

Date:

Astronomy

Dec. 29, 2012 Rise Set
Actual Time 9:54 AM HST 5:44 PM HST
Civil Twilight 9:13 AM HST 6:24 PM HST
Nautical Twilight 8:30 AM HST 7:08 PM HST
Astronomical Twilight 7:49 AM HST 7:49 PM HST
Moon 7:46 PM HST (12/29) 10:23 AM HST (12/29)
Length of Visible Light 9h 11m
Length of Day
7h 49m
Full, 98% of the Moon is Illuminated
Dec 29
Full
Jan 4
Last Quarter
Jan 11
New
Jan 18
First Quarter
Jan 26
Full

Hourly Weather History & Observations

Time (HST) Temp. Windchill Dew Point Humidity Pressure Visibility Wind Dir Wind Speed Gust Speed Precip Events Conditions
12:16 AM 33.8 °F 27.7 °F 32.0 °F 93% 28.76 in 10.0 mi NNW 6.9 mph - N/A   Overcast
12:36 AM 33.8 °F 27.0 °F 32.0 °F 93% 28.76 in 10.0 mi NNW 8.1 mph - N/A   Overcast
12:56 AM 33.8 °F 28.6 °F 32.0 °F 93% 28.77 in 10.0 mi North 5.8 mph - N/A   Mostly Cloudy
1:16 AM 33.8 °F 28.6 °F 30.2 °F 87% 28.77 in 10.0 mi NNW 5.8 mph - N/A   Overcast
1:36 AM 33.8 °F 29.6 °F 30.2 °F 87% 28.77 in 10.0 mi North 4.6 mph - N/A   Mostly Cloudy
1:56 AM 33.8 °F 29.6 °F 30.2 °F 87% 28.78 in 10.0 mi NNW 4.6 mph - N/A   Mostly Cloudy
2:16 AM 33.8 °F 29.6 °F 30.2 °F 87% 28.78 in 10.0 mi North 4.6 mph - N/A   Overcast
2:36 AM 33.8 °F - 30.2 °F 87% 28.79 in 10.0 mi Calm Calm - N/A   Overcast
2:56 AM 33.8 °F - 30.2 °F 87% 28.79 in 10.0 mi Calm Calm - N/A   Overcast
3:16 AM 33.8 °F 30.8 °F 30.2 °F 87% 28.80 in 10.0 mi WSW 3.5 mph - N/A   Overcast
3:36 AM 33.8 °F - 30.2 °F 87% 28.81 in 10.0 mi Calm Calm - N/A   Overcast
3:56 AM 33.8 °F 30.8 °F 30.2 °F 87% 28.81 in 10.0 mi WSW 3.5 mph - N/A   Overcast
4:16 AM 33.8 °F 30.8 °F 30.2 °F 87% 28.82 in 10.0 mi WSW 3.5 mph - N/A   Overcast
4:36 AM 33.8 °F 30.8 °F 30.2 °F 87% 28.82 in 10.0 mi NW 3.5 mph - N/A   Mostly Cloudy
4:56 AM 32.0 °F 27.5 °F 28.4 °F 87% 28.82 in 10.0 mi West 4.6 mph - N/A   Partly Cloudy
5:16 AM 30.2 °F 24.3 °F 28.4 °F 93% 28.83 in 10.0 mi SW 5.8 mph - N/A   Scattered Clouds
5:36 AM 30.2 °F 26.7 °F 28.4 °F 93% 28.83 in 10.0 mi West 3.5 mph - N/A   Overcast
5:56 AM 32.0 °F 25.6 °F 28.4 °F 87% 28.84 in 9.0 mi North 6.9 mph - N/A   Overcast
6:16 AM 33.8 °F 23.9 °F 32.0 °F 93% 28.85 in 10.0 mi North 15.0 mph - N/A   Overcast
6:36 AM 33.8 °F 23.2 °F 32.0 °F 93% 28.85 in 9.0 mi NNW 17.3 mph 21.9 mph N/A   Overcast
6:56 AM 33.8 °F 21.3 °F 30.2 °F 87% 28.85 in 2.5 mi North 24.2 mph 29.9 mph N/A   Overcast
7:16 AM 33.8 °F 21.6 °F 30.2 °F 87% 28.86 in 2.5 mi North 23.0 mph 32.2 mph 0.02 in   Overcast
7:36 AM 33.8 °F 21.6 °F 30.2 °F 87% 28.87 in 5.0 mi North 23.0 mph 32.2 mph 0.02 in   Overcast
7:56 AM 33.8 °F 21.0 °F 30.2 °F 87% 28.88 in 3.0 mi North 25.3 mph 35.7 mph 0.02 in   Overcast
8:16 AM 33.8 °F 20.5 °F 30.2 °F 87% 28.89 in 3.0 mi North 27.6 mph 33.4 mph N/A   Overcast
8:36 AM 33.8 °F 20.3 °F 30.2 °F 87% 28.89 in 2.0 mi North 28.8 mph 34.5 mph N/A   Overcast
8:56 AM 33.8 °F 20.5 °F 30.2 °F 87% 28.90 in 1.5 mi NNW 27.6 mph 33.4 mph N/A   Overcast
9:16 AM 33.8 °F 20.3 °F 28.4 °F 81% 28.90 in 1.8 mi NNW 28.8 mph 36.8 mph N/A   Overcast
9:36 AM 32.0 °F 17.6 °F 28.4 °F 87% 28.92 in 3.0 mi NNW 29.9 mph 40.3 mph N/A   Overcast
9:56 AM 32.0 °F 17.9 °F 28.4 °F 87% 28.93 in 1.8 mi NNW 28.8 mph 35.7 mph N/A   Overcast
10:16 AM 32.0 °F 17.6 °F 26.6 °F 80% 28.94 in 5.0 mi NNW 29.9 mph 39.1 mph N/A   Overcast
10:36 AM 32.0 °F 18.4 °F 26.6 °F 80% 28.95 in 1.8 mi NNW 26.5 mph 39.1 mph N/A   Overcast
10:56 AM 32.0 °F 17.9 °F 28.4 °F 87% 28.96 in 2.0 mi NNW 28.8 mph 35.7 mph N/A   Overcast
11:16 AM 32.0 °F 19.2 °F 26.6 °F 80% 28.97 in 2.0 mi NNW 23.0 mph 36.8 mph N/A   Overcast
11:36 AM 32.0 °F 18.4 °F 26.6 °F 80% 28.97 in 4.0 mi NNW 26.5 mph 33.4 mph N/A   Overcast
11:56 AM 32.0 °F 18.9 °F 26.6 °F 80% 28.98 in 8.0 mi NNW 24.2 mph 31.1 mph N/A   Overcast
12:16 PM 32.0 °F 19.8 °F 26.6 °F 80% 28.99 in 9.0 mi NNW 20.7 mph 31.1 mph N/A   Overcast
12:36 PM 32.0 °F 18.9 °F 26.6 °F 80% 28.99 in 1.8 mi NNW 24.2 mph 29.9 mph N/A   Overcast
12:56 PM 32.0 °F 19.5 °F 26.6 °F 80% 29.00 in 10.0 mi NNW 21.9 mph 29.9 mph N/A   Overcast
1:16 PM 32.0 °F 19.8 °F 24.8 °F 75% 29.00 in 10.0 mi NNW 20.7 mph 26.5 mph N/A   Mostly Cloudy
1:36 PM 33.8 °F 22.5 °F 24.8 °F 70% 29.00 in 9.0 mi NNW 19.6 mph 27.6 mph N/A   Overcast
1:56 PM 32.0 °F 20.5 °F 24.8 °F 75% 29.01 in 10.0 mi NNW 18.4 mph 26.5 mph N/A   Overcast
2:16 PM 33.8 °F 23.9 °F 24.8 °F 70% 29.01 in 10.0 mi NNW 15.0 mph - N/A   Mostly Cloudy
2:36 PM 33.8 °F 23.5 °F 24.8 °F 70% 29.01 in 10.0 mi NNW 16.1 mph 24.2 mph N/A   Overcast
2:56 PM 33.8 °F 21.9 °F 24.8 °F 70% 29.01 in 10.0 mi NNW 21.9 mph 25.3 mph N/A   Overcast
3:16 PM 33.8 °F 22.8 °F 24.8 °F 70% 29.01 in 10.0 mi North 18.4 mph 25.3 mph N/A   Overcast
3:36 PM 33.8 °F 22.5 °F 24.8 °F 70% 29.01 in 10.0 mi North 19.6 mph 24.2 mph N/A   Overcast
3:56 PM 33.8 °F 23.2 °F 24.8 °F 70% 29.01 in 10.0 mi NNW 17.3 mph 23.0 mph N/A   Overcast
4:16 PM 33.8 °F 22.8 °F 23.0 °F 65% 29.02 in 10.0 mi NNW 18.4 mph 23.0 mph N/A   Overcast
4:36 PM 33.8 °F 23.9 °F 24.8 °F 70% 29.03 in 10.0 mi NNW 15.0 mph 23.0 mph N/A   Overcast
4:56 PM 33.8 °F 24.3 °F 23.0 °F 65% 29.04 in 10.0 mi NW 13.8 mph 21.9 mph N/A   Mostly Cloudy
5:16 PM 33.8 °F 26.4 °F 24.8 °F 70% 29.04 in 10.0 mi NW 9.2 mph 18.4 mph N/A   Mostly Cloudy
5:36 PM 32.0 °F 22.5 °F 26.6 °F 80% 29.05 in 5.0 mi NNW 12.7 mph 26.5 mph N/A   Overcast
5:56 PM 32.0 °F 22.5 °F 26.6 °F 80% 29.06 in 5.0 mi NW 12.7 mph 16.1 mph N/A   Overcast
6:16 PM 32.0 °F 23.6 °F 23.0 °F 69% 29.06 in 10.0 mi NNW 10.4 mph 18.4 mph N/A   Overcast
6:36 PM 32.0 °F 23.6 °F 23.0 °F 69% 29.06 in 10.0 mi NW 10.4 mph 17.3 mph N/A   Overcast
6:56 PM 32.0 °F 22.1 °F 23.0 °F 69% 29.06 in 10.0 mi WNW 13.8 mph 21.9 mph N/A   Overcast
7:16 PM 32.0 °F 22.1 °F 21.2 °F 64% 29.07 in 10.0 mi WNW 13.8 mph - N/A   Mostly Cloudy
7:36 PM 32.0 °F 24.8 °F 21.2 °F 64% 29.07 in 10.0 mi WNW 8.1 mph - N/A   Mostly Cloudy
7:56 PM 32.0 °F 22.5 °F 21.2 °F 64% 29.07 in 10.0 mi WNW 12.7 mph - N/A   Overcast
8:16 PM 32.0 °F 23.0 °F 24.8 °F 75% 29.07 in 10.0 mi WNW 11.5 mph - N/A   Mostly Cloudy
8:36 PM 32.0 °F 23.0 °F 19.4 °F 60% 29.07 in 10.0 mi WNW 11.5 mph - N/A   Mostly Cloudy
8:56 PM 32.0 °F 23.6 °F 23.0 °F 69% 29.07 in 9.0 mi WNW 10.4 mph 19.6 mph N/A   Overcast
9:16 PM 32.0 °F 22.1 °F 24.8 °F 75% 29.07 in 10.0 mi WNW 13.8 mph 19.6 mph N/A   Overcast
9:36 PM 32.0 °F 22.1 °F 23.0 °F 69% 29.08 in 10.0 mi WNW 13.8 mph 21.9 mph N/A   Overcast
9:56 PM 32.0 °F 19.5 °F 23.0 °F 69% 29.08 in 10.0 mi West 21.9 mph - N/A   Overcast
10:16 PM 32.0 °F 22.1 °F 23.0 °F 69% 29.08 in 8.0 mi WNW 13.8 mph 23.0 mph N/A   Mostly Cloudy
10:36 PM 32.0 °F 23.6 °F 21.2 °F 64% 29.09 in 10.0 mi WNW 10.4 mph - N/A   Overcast
10:56 PM 32.0 °F 22.5 °F 21.2 °F 64% 29.10 in 10.0 mi WNW 12.7 mph - N/A   Overcast
11:16 PM 32.0 °F 25.6 °F 23.0 °F 69% 29.10 in 10.0 mi WNW 6.9 mph - N/A   Overcast
11:36 PM 32.0 °F 24.2 °F 21.2 °F 64% 29.10 in 10.0 mi WNW 9.2 mph - N/A   Overcast
11:56 PM 32.0 °F 20.5 °F 23.0 °F 69% 29.10 in 10.0 mi West 18.4 mph 23.0 mph N/A   Overcast